User: anonymous   Login
Location: Newark
(45.5000°N, 11.4167°E)
Time: 17:59:12
(UTC+00:00)
Language:

SR - Orbit

View from above orbital plane
View from above orbital plane
View from above satellite
View from above satellite

Ground track
Ground track

The orbit data is extracted from the following two-line orbital elements,

1    46U 60007B   19235.92621811 -.00000066 +00000-0 +10165-4 0  9993
2    46 066.6906 133.1444 0211276 351.6415 008.1191 14.49239478095857
Epoch (UTC): 23 August 2019 22:13:45
Eccentricity: 0.0211276
inclination: 66.6906°
perigee height: 578 km
apogee height: 878 km
right ascension of ascending node: 133.1444°
argument of perigee: 351.6415°
revolutions per day: 14.49239478
mean anomaly at epoch: 8.1191°
orbit number at epoch: 9585

The dashed part of the orbit path shows where the satellite is in the earth's shadow,  

DLR